Year,Month,Day,Hour,Minute,Value (Times are PST for temperature in C)
2017,10,25,00,00,7.30
2017,10,25,00,01,7.30
2017,10,25,00,02,7.30
2017,10,25,00,03,7.30
2017,10,25,00,04,7.20
2017,10,25,00,05,7.20
2017,10,25,00,06,7.20
2017,10,25,00,07,7.20
2017,10,25,00,08,7.20
2017,10,25,00,09,7.20
2017,10,25,00,10,7.30
2017,10,25,00,11,7.30
2017,10,25,00,12,7.30
2017,10,25,00,13,7.40
2017,10,25,00,14,7.40
2017,10,25,00,15,7.50
2017,10,25,00,16,7.50
2017,10,25,00,17,7.60
2017,10,25,00,18,7.60
2017,10,25,00,19,7.60
2017,10,25,00,20,7.70
2017,10,25,00,21,7.70
2017,10,25,00,22,7.70
2017,10,25,00,23,7.70
2017,10,25,00,24,7.70
2017,10,25,00,25,7.70
2017,10,25,00,26,7.70
2017,10,25,00,27,7.60
2017,10,25,00,28,7.60
2017,10,25,00,29,7.60
2017,10,25,00,30,7.60
2017,10,25,00,31,7.60
2017,10,25,00,32,7.50
2017,10,25,00,33,7.50
2017,10,25,00,34,7.40
2017,10,25,00,35,7.40
2017,10,25,00,36,7.40
2017,10,25,00,37,7.40
2017,10,25,00,38,7.40
2017,10,25,00,39,7.30
2017,10,25,00,40,7.30
2017,10,25,00,41,7.30
2017,10,25,00,42,7.30
2017,10,25,00,43,7.30
2017,10,25,00,44,7.20
2017,10,25,00,45,7.20
2017,10,25,00,46,7.20
2017,10,25,00,47,7.20
2017,10,25,00,48,7.20
2017,10,25,00,49,7.30
2017,10,25,00,50,7.30
2017,10,25,00,51,7.40
2017,10,25,00,52,7.50
2017,10,25,00,53,7.50
2017,10,25,00,54,7.60
2017,10,25,00,55,7.70
2017,10,25,00,56,7.70
2017,10,25,00,57,7.70
2017,10,25,00,58,7.80
2017,10,25,00,59,7.70
2017,10,25,01,00,7.70
2017,10,25,01,01,7.70
2017,10,25,01,02,7.60
2017,10,25,01,03,7.60
2017,10,25,01,04,7.60
2017,10,25,01,05,7.60
2017,10,25,01,06,7.50
2017,10,25,01,07,7.50
2017,10,25,01,08,7.50
2017,10,25,01,09,7.50
2017,10,25,01,10,7.50
2017,10,25,01,11,7.60
2017,10,25,01,12,7.60
2017,10,25,01,13,7.50
2017,10,25,01,14,7.50
2017,10,25,01,15,7.50
2017,10,25,01,16,7.50
2017,10,25,01,17,7.50
2017,10,25,01,18,7.50
2017,10,25,01,19,7.60
2017,10,25,01,20,7.60
2017,10,25,01,21,7.60
2017,10,25,01,22,7.70
2017,10,25,01,23,7.70
2017,10,25,01,24,7.70
2017,10,25,01,25,7.70
2017,10,25,01,26,7.70
2017,10,25,01,27,7.70
2017,10,25,01,28,7.80
2017,10,25,01,29,7.80
2017,10,25,01,30,7.70
2017,10,25,01,31,7.70
2017,10,25,01,32,7.70
2017,10,25,01,33,7.70
2017,10,25,01,34,7.60
2017,10,25,01,35,7.60
2017,10,25,01,36,7.60
2017,10,25,01,37,7.60
2017,10,25,01,38,7.60
2017,10,25,01,39,7.70
2017,10,25,01,40,7.70
2017,10,25,01,41,7.70
2017,10,25,01,42,7.80
2017,10,25,01,43,7.80
2017,10,25,01,44,7.80
2017,10,25,01,45,7.80
2017,10,25,01,46,7.80
2017,10,25,01,47,7.80
2017,10,25,01,48,7.70
2017,10,25,01,49,7.60
2017,10,25,01,50,7.50
2017,10,25,01,51,7.40
2017,10,25,01,52,7.40
2017,10,25,01,53,7.40
2017,10,25,01,54,7.40
2017,10,25,01,55,7.40
2017,10,25,01,56,7.40
2017,10,25,01,57,7.40
2017,10,25,01,58,7.50
2017,10,25,01,59,7.50
2017,10,25,02,00,7.60
2017,10,25,02,01,7.70
2017,10,25,02,02,7.80
2017,10,25,02,03,7.90
2017,10,25,02,04,7.90
2017,10,25,02,05,8.00
2017,10,25,02,06,8.00
2017,10,25,02,07,7.90
2017,10,25,02,08,7.80
2017,10,25,02,09,7.70
2017,10,25,02,10,7.50
2017,10,25,02,11,7.50
2017,10,25,02,12,7.40
2017,10,25,02,13,7.40
2017,10,25,02,14,7.40
2017,10,25,02,15,7.40
2017,10,25,02,16,7.40
2017,10,25,02,17,7.40
2017,10,25,02,18,7.30
2017,10,25,02,19,7.30
2017,10,25,02,20,7.30
2017,10,25,02,21,7.30
2017,10,25,02,22,7.30
2017,10,25,02,23,7.30
2017,10,25,02,24,7.20
2017,10,25,02,25,7.20
2017,10,25,02,26,7.20
2017,10,25,02,27,7.30
2017,10,25,02,28,7.30
2017,10,25,02,29,7.30
2017,10,25,02,30,7.30
2017,10,25,02,31,7.20
2017,10,25,02,32,7.20
2017,10,25,02,33,7.20
2017,10,25,02,34,7.20
2017,10,25,02,35,7.20
2017,10,25,02,36,7.30
2017,10,25,02,37,7.30
2017,10,25,02,38,7.40
2017,10,25,02,39,7.40
2017,10,25,02,40,7.50
2017,10,25,02,41,7.50
2017,10,25,02,42,7.60
2017,10,25,02,43,7.60
2017,10,25,02,44,7.60
2017,10,25,02,45,7.50
2017,10,25,02,46,7.40
2017,10,25,02,47,7.40
2017,10,25,02,48,7.30
2017,10,25,02,49,7.30
2017,10,25,02,50,7.30
2017,10,25,02,51,7.20
2017,10,25,02,52,7.20
2017,10,25,02,53,7.20
2017,10,25,02,54,7.20
2017,10,25,02,55,7.20
2017,10,25,02,56,7.20
2017,10,25,02,57,7.20
2017,10,25,02,58,7.30
2017,10,25,02,59,7.30
2017,10,25,03,00,7.30
2017,10,25,03,01,7.40
2017,10,25,03,02,7.40
2017,10,25,03,03,7.40
2017,10,25,03,04,7.30
2017,10,25,03,05,7.30
2017,10,25,03,06,7.30
2017,10,25,03,07,7.30
2017,10,25,03,08,7.30
2017,10,25,03,09,7.40
2017,10,25,03,10,7.40
2017,10,25,03,11,7.50
2017,10,25,03,12,7.60
2017,10,25,03,13,7.60
2017,10,25,03,14,7.60
2017,10,25,03,15,7.60
2017,10,25,03,16,7.60
2017,10,25,03,17,7.50
2017,10,25,03,18,7.50
2017,10,25,03,19,7.50
2017,10,25,03,20,7.50
2017,10,25,03,21,7.50
2017,10,25,03,22,7.50
2017,10,25,03,23,7.50
2017,10,25,03,24,7.50
2017,10,25,03,25,7.50
2017,10,25,03,26,7.50
2017,10,25,03,27,7.50
2017,10,25,03,28,7.60
2017,10,25,03,29,7.60
2017,10,25,03,30,7.60
2017,10,25,03,31,7.60
2017,10,25,03,32,7.60
2017,10,25,03,33,7.70
2017,10,25,03,34,7.80
2017,10,25,03,35,7.80
2017,10,25,03,36,7.80
2017,10,25,03,37,7.70
2017,10,25,03,38,7.70
2017,10,25,03,39,7.70
2017,10,25,03,40,7.60
2017,10,25,03,41,7.60
2017,10,25,03,42,7.60
2017,10,25,03,43,7.60
2017,10,25,03,44,7.50
2017,10,25,03,45,7.50
2017,10,25,03,46,7.50
2017,10,25,03,47,7.40
2017,10,25,03,48,7.50
2017,10,25,03,49,7.50
2017,10,25,03,50,7.60
2017,10,25,03,51,7.70
2017,10,25,03,52,7.70
2017,10,25,03,53,7.70
2017,10,25,03,54,7.70
2017,10,25,03,55,7.70
2017,10,25,03,56,7.70
2017,10,25,03,57,7.80
2017,10,25,03,58,7.80
2017,10,25,03,59,7.80
2017,10,25,04,00,7.80
2017,10,25,04,01,7.80
2017,10,25,04,02,7.80
2017,10,25,04,03,7.80
2017,10,25,04,04,7.80
2017,10,25,04,05,7.80
2017,10,25,04,06,7.80
2017,10,25,04,07,7.80
2017,10,25,04,08,7.80
2017,10,25,04,09,7.80
2017,10,25,04,10,7.90
2017,10,25,04,11,7.90
2017,10,25,04,12,7.90
2017,10,25,04,13,7.90
2017,10,25,04,14,7.80
2017,10,25,04,15,7.80
2017,10,25,04,16,7.90
2017,10,25,04,17,7.90
2017,10,25,04,18,7.90
2017,10,25,04,19,7.90
2017,10,25,04,20,7.90
2017,10,25,04,21,7.90
2017,10,25,04,22,7.90
2017,10,25,04,23,7.90
2017,10,25,04,24,7.90
2017,10,25,04,25,8.00
2017,10,25,04,26,8.10
2017,10,25,04,27,8.20
2017,10,25,04,28,8.30
2017,10,25,04,29,8.40
2017,10,25,04,30,8.50
2017,10,25,04,31,8.50
2017,10,25,04,32,8.60
2017,10,25,04,33,8.60
2017,10,25,04,34,8.70
2017,10,25,04,35,8.80
2017,10,25,04,36,8.80
2017,10,25,04,37,8.90
2017,10,25,04,38,9.00
2017,10,25,04,39,9.00
2017,10,25,04,40,9.10
2017,10,25,04,41,9.30
2017,10,25,04,42,9.30
2017,10,25,04,43,9.40
2017,10,25,04,44,9.40
2017,10,25,04,45,9.50
2017,10,25,04,46,9.50
2017,10,25,04,47,9.60
2017,10,25,04,48,9.60
2017,10,25,04,49,9.60
2017,10,25,04,50,9.60
2017,10,25,04,51,9.60
2017,10,25,04,52,9.70
2017,10,25,04,53,9.70
2017,10,25,04,54,9.70
2017,10,25,04,55,9.70
2017,10,25,04,56,9.70
2017,10,25,04,57,9.70
2017,10,25,04,58,9.70
2017,10,25,04,59,9.80
2017,10,25,05,00,9.80
2017,10,25,05,01,9.80
2017,10,25,05,02,9.80
2017,10,25,05,03,9.80
2017,10,25,05,04,9.90
2017,10,25,05,05,9.90
2017,10,25,05,06,9.90
2017,10,25,05,07,9.90
2017,10,25,05,08,9.90
2017,10,25,05,09,10.00
2017,10,25,05,10,10.00
2017,10,25,05,11,10.00
2017,10,25,05,12,10.10
2017,10,25,05,13,10.10
2017,10,25,05,14,10.10
2017,10,25,05,15,10.10
2017,10,25,05,16,10.10
2017,10,25,05,17,10.10
2017,10,25,05,18,10.10
2017,10,25,05,19,10.10
2017,10,25,05,20,10.10
2017,10,25,05,21,10.20
2017,10,25,05,22,10.20
2017,10,25,05,23,10.30
2017,10,25,05,24,10.30
2017,10,25,05,25,10.30
2017,10,25,05,26,10.40
2017,10,25,05,27,10.40
2017,10,25,05,28,10.40
2017,10,25,05,29,10.40
2017,10,25,05,30,10.40
2017,10,25,05,31,10.40
2017,10,25,05,32,10.40
2017,10,25,05,33,10.50
2017,10,25,05,34,10.50
2017,10,25,05,35,10.40
2017,10,25,05,36,10.50
2017,10,25,05,37,10.50
2017,10,25,05,38,10.50
2017,10,25,05,39,10.50
2017,10,25,05,40,10.50
2017,10,25,05,41,10.50
2017,10,25,05,42,10.50
2017,10,25,05,43,10.50
2017,10,25,05,44,10.60
2017,10,25,05,45,10.60
2017,10,25,05,46,10.60
2017,10,25,05,47,10.60
2017,10,25,05,48,10.60
2017,10,25,05,49,10.60
2017,10,25,05,50,10.60
2017,10,25,05,51,10.70
2017,10,25,05,52,10.70
2017,10,25,05,53,10.70
2017,10,25,05,54,10.70
2017,10,25,05,55,10.70
2017,10,25,05,56,10.80
2017,10,25,05,57,10.80
2017,10,25,05,58,10.80
2017,10,25,05,59,10.90
2017,10,25,06,00,10.90
2017,10,25,06,01,10.90
2017,10,25,06,02,10.90
2017,10,25,06,03,10.90
2017,10,25,06,04,11.00
2017,10,25,06,05,11.00
2017,10,25,06,06,11.00
2017,10,25,06,07,11.00
2017,10,25,06,08,11.00
2017,10,25,06,09,11.00
2017,10,25,06,10,11.00
2017,10,25,06,11,11.00
2017,10,25,06,12,11.00
2017,10,25,06,13,11.00
2017,10,25,06,14,11.00
2017,10,25,06,15,11.00
2017,10,25,06,16,11.00
2017,10,25,06,17,11.00
2017,10,25,06,18,11.00
2017,10,25,06,19,11.00
2017,10,25,06,20,11.00
2017,10,25,06,21,11.00
2017,10,25,06,22,10.90
2017,10,25,06,23,11.00
2017,10,25,06,24,11.00
2017,10,25,06,25,11.00
2017,10,25,06,26,10.90
2017,10,25,06,27,11.00
2017,10,25,06,28,11.00
2017,10,25,06,29,11.00
2017,10,25,06,30,11.00
2017,10,25,06,31,11.00
2017,10,25,06,32,11.00
2017,10,25,06,33,11.00
2017,10,25,06,34,11.00
2017,10,25,06,35,11.00
2017,10,25,06,36,11.00
2017,10,25,06,37,11.00
2017,10,25,06,38,11.00
2017,10,25,06,39,11.00
2017,10,25,06,40,11.00
2017,10,25,06,41,11.00
2017,10,25,06,42,11.00
2017,10,25,06,43,11.00
2017,10,25,06,44,11.00
2017,10,25,06,45,11.00
2017,10,25,06,46,11.00
2017,10,25,06,47,11.00
2017,10,25,06,48,10.90
2017,10,25,06,49,10.90
2017,10,25,06,50,10.90
2017,10,25,06,51,10.90
2017,10,25,06,52,10.90
2017,10,25,06,53,10.90
2017,10,25,06,54,10.90
2017,10,25,06,55,10.90
2017,10,25,06,56,10.90
2017,10,25,06,57,10.90
2017,10,25,06,58,10.90
2017,10,25,06,59,11.00
2017,10,25,07,00,11.00
2017,10,25,07,01,11.10
2017,10,25,07,02,11.10
2017,10,25,07,03,11.10
2017,10,25,07,04,11.20
2017,10,25,07,05,11.20
2017,10,25,07,06,11.20
2017,10,25,07,07,11.20
2017,10,25,07,08,11.20
2017,10,25,07,09,11.20
2017,10,25,07,10,11.20
2017,10,25,07,11,11.20
2017,10,25,07,12,11.30
2017,10,25,07,13,11.30
2017,10,25,07,14,11.30
2017,10,25,07,15,11.20
2017,10,25,07,16,11.20
2017,10,25,07,17,11.20
2017,10,25,07,18,11.20
2017,10,25,07,19,11.20
2017,10,25,07,20,11.10
2017,10,25,07,21,11.10
2017,10,25,07,22,11.10
2017,10,25,07,23,11.10
2017,10,25,07,24,11.10
2017,10,25,07,25,11.10
2017,10,25,07,26,11.00
2017,10,25,07,27,11.00
2017,10,25,07,28,11.00
2017,10,25,07,29,11.00
2017,10,25,07,30,11.00
2017,10,25,07,31,11.00
2017,10,25,07,32,11.00
2017,10,25,07,33,11.00
2017,10,25,07,34,10.90
2017,10,25,07,35,11.00
2017,10,25,07,36,11.00
2017,10,25,07,37,11.10
2017,10,25,07,38,11.20
2017,10,25,07,39,11.20
2017,10,25,07,40,11.20
2017,10,25,07,41,11.20
2017,10,25,07,42,11.10
2017,10,25,07,43,11.10
2017,10,25,07,44,11.10
2017,10,25,07,45,11.20
2017,10,25,07,46,11.20
2017,10,25,07,47,11.20
2017,10,25,07,48,11.30
2017,10,25,07,49,11.30
2017,10,25,07,50,11.30
2017,10,25,07,51,11.20
2017,10,25,07,52,11.20
2017,10,25,07,53,11.20
2017,10,25,07,54,11.20
2017,10,25,07,55,11.30
2017,10,25,07,56,11.40
2017,10,25,07,57,11.50
2017,10,25,07,58,11.60
2017,10,25,07,59,11.70
2017,10,25,08,00,11.90
2017,10,25,08,01,12.00
2017,10,25,08,02,12.30
2017,10,25,08,03,12.80
2017,10,25,08,04,13.10
2017,10,25,08,05,13.40
2017,10,25,08,06,13.70
2017,10,25,08,07,14.00
2017,10,25,08,08,14.10
2017,10,25,08,09,14.30
2017,10,25,08,10,14.60
2017,10,25,08,11,14.80
2017,10,25,08,12,15.00
2017,10,25,08,13,15.10
2017,10,25,08,14,15.10
2017,10,25,08,15,15.10
2017,10,25,08,16,15.10
2017,10,25,08,17,15.10
2017,10,25,08,18,15.20
2017,10,25,08,19,15.20
2017,10,25,08,20,15.20
2017,10,25,08,21,15.30
2017,10,25,08,22,15.30
2017,10,25,08,23,15.40
2017,10,25,08,24,15.40
2017,10,25,08,25,15.40
2017,10,25,08,26,15.40
2017,10,25,08,27,15.50
2017,10,25,08,28,15.50
2017,10,25,08,29,15.40
2017,10,25,08,30,15.40
2017,10,25,08,31,15.40
2017,10,25,08,32,15.50
2017,10,25,08,33,15.50
2017,10,25,08,34,15.50
2017,10,25,08,35,15.50
2017,10,25,08,36,15.50
2017,10,25,08,37,15.40
2017,10,25,08,38,15.40
2017,10,25,08,39,15.50
2017,10,25,08,40,15.50
2017,10,25,08,41,15.60
2017,10,25,08,42,15.60
2017,10,25,08,43,15.50
2017,10,25,08,44,15.50
2017,10,25,08,45,15.50
2017,10,25,08,46,15.40
2017,10,25,08,47,15.40
2017,10,25,08,48,15.40
2017,10,25,08,49,15.40
2017,10,25,08,50,15.30
2017,10,25,08,51,15.30
2017,10,25,08,52,15.30
2017,10,25,08,53,15.30
2017,10,25,08,54,15.30
2017,10,25,08,55,15.30
2017,10,25,08,56,15.20
2017,10,25,08,57,15.20
2017,10,25,08,58,15.20
2017,10,25,08,59,15.20
2017,10,25,09,00,15.20
2017,10,25,09,01,15.20
2017,10,25,09,02,15.20
2017,10,25,09,03,15.20
2017,10,25,09,04,15.30
2017,10,25,09,05,15.30
2017,10,25,09,06,15.30
2017,10,25,09,07,15.30
2017,10,25,09,08,15.30
2017,10,25,09,09,15.30
2017,10,25,09,10,15.30
2017,10,25,09,11,15.30
2017,10,25,09,12,15.30
2017,10,25,09,13,15.30
2017,10,25,09,14,15.40
2017,10,25,09,15,15.40
2017,10,25,09,16,15.40
2017,10,25,09,17,15.40
2017,10,25,09,18,15.40
2017,10,25,09,19,15.30
2017,10,25,09,20,15.30
2017,10,25,09,21,15.30
2017,10,25,09,22,15.30
2017,10,25,09,23,15.30
2017,10,25,09,24,15.40
2017,10,25,09,25,15.40
2017,10,25,09,26,15.40
2017,10,25,09,27,15.40
2017,10,25,09,28,15.40
2017,10,25,09,29,15.40
2017,10,25,09,30,15.30
2017,10,25,09,31,15.30
2017,10,25,09,32,15.30
2017,10,25,09,33,15.20
2017,10,25,09,34,15.20
2017,10,25,09,35,15.20
2017,10,25,09,36,15.20
2017,10,25,09,37,15.10
2017,10,25,09,38,15.10
2017,10,25,09,39,15.10
2017,10,25,09,40,15.10
2017,10,25,09,41,15.10
2017,10,25,09,42,15.10
2017,10,25,09,43,15.20
2017,10,25,09,44,15.20
2017,10,25,09,45,15.20
2017,10,25,09,46,15.20
2017,10,25,09,47,15.20
2017,10,25,09,48,15.20
2017,10,25,09,49,15.30
2017,10,25,09,50,15.30
2017,10,25,09,51,15.30
2017,10,25,09,52,15.40
2017,10,25,09,53,15.40
2017,10,25,09,54,15.40
2017,10,25,09,55,15.50
2017,10,25,09,56,15.50
2017,10,25,09,57,15.50
2017,10,25,09,58,15.50
2017,10,25,09,59,15.50
2017,10,25,10,00,15.40
2017,10,25,10,01,15.30
2017,10,25,10,02,15.10
2017,10,25,10,03,14.90
2017,10,25,10,04,14.80
2017,10,25,10,05,14.70
2017,10,25,10,06,14.50
2017,10,25,10,07,14.30
2017,10,25,10,08,14.20
2017,10,25,10,09,14.10
2017,10,25,10,10,14.10
2017,10,25,10,11,14.00
2017,10,25,10,12,14.00
2017,10,25,10,13,13.90
2017,10,25,10,14,13.90
2017,10,25,10,15,13.90
2017,10,25,10,16,13.90
2017,10,25,10,17,13.80
2017,10,25,10,18,13.70
2017,10,25,10,19,13.60
2017,10,25,10,20,13.50
2017,10,25,10,21,13.30
2017,10,25,10,22,13.20
2017,10,25,10,23,13.10
2017,10,25,10,24,12.90
2017,10,25,10,25,12.70
2017,10,25,10,26,12.60
2017,10,25,10,27,12.50
2017,10,25,10,28,12.40
2017,10,25,10,29,12.30
2017,10,25,10,30,12.30
2017,10,25,10,31,12.20
2017,10,25,10,32,12.20
2017,10,25,10,33,12.20
2017,10,25,10,34,12.20
2017,10,25,10,35,12.20
2017,10,25,10,36,12.20
2017,10,25,10,37,12.20
2017,10,25,10,38,12.20
2017,10,25,10,39,12.30
2017,10,25,10,40,12.30
2017,10,25,10,41,12.30
2017,10,25,10,42,12.30
2017,10,25,10,43,12.30
2017,10,25,10,44,12.30
2017,10,25,10,45,12.30
2017,10,25,10,46,12.30
2017,10,25,10,47,12.30
2017,10,25,10,48,12.30
2017,10,25,10,49,12.30
2017,10,25,10,50,12.30
2017,10,25,10,51,12.30
2017,10,25,10,52,12.30
2017,10,25,10,53,12.40
2017,10,25,10,54,12.40
2017,10,25,10,55,12.40
2017,10,25,10,56,12.50
2017,10,25,10,57,12.50
2017,10,25,10,58,12.60
2017,10,25,10,59,12.70
2017,10,25,11,00,12.70
2017,10,25,11,01,12.80
2017,10,25,11,02,12.90
2017,10,25,11,03,13.00
2017,10,25,11,04,13.00
2017,10,25,11,05,13.10
2017,10,25,11,06,13.20
2017,10,25,11,07,13.20
2017,10,25,11,08,13.30
2017,10,25,11,09,13.30
2017,10,25,11,10,13.30
2017,10,25,11,11,13.30
2017,10,25,11,12,13.40
2017,10,25,11,13,13.30
2017,10,25,11,14,13.30
2017,10,25,11,15,13.30
2017,10,25,11,16,13.20
2017,10,25,11,17,13.20
2017,10,25,11,18,13.20
2017,10,25,11,19,13.10
2017,10,25,11,20,13.00
2017,10,25,11,21,13.00
2017,10,25,11,22,12.90
2017,10,25,11,23,12.90
2017,10,25,11,24,12.90
2017,10,25,11,25,12.80
2017,10,25,11,26,12.80
2017,10,25,11,27,12.70
2017,10,25,11,28,12.70
2017,10,25,11,29,12.70
2017,10,25,11,30,12.70
2017,10,25,11,31,12.70
2017,10,25,11,32,12.70
2017,10,25,11,33,12.70
2017,10,25,11,34,12.70
2017,10,25,11,35,12.70
2017,10,25,11,36,12.70
2017,10,25,11,37,12.70
2017,10,25,11,38,12.70
2017,10,25,11,39,12.70
2017,10,25,11,40,12.70
2017,10,25,11,41,12.70
2017,10,25,11,42,12.70
2017,10,25,11,43,12.60
2017,10,25,11,44,12.70
2017,10,25,11,45,12.60
2017,10,25,11,46,12.60
2017,10,25,11,47,12.60
2017,10,25,11,48,12.70
2017,10,25,11,49,12.70
2017,10,25,11,50,12.70
2017,10,25,11,51,12.60
2017,10,25,11,52,12.60
2017,10,25,11,53,12.60
2017,10,25,11,54,12.60
2017,10,25,11,55,12.50
2017,10,25,11,56,12.50
2017,10,25,11,57,12.50
2017,10,25,11,58,12.40
2017,10,25,11,59,12.40
2017,10,25,12,00,12.40
2017,10,25,12,01,12.40
2017,10,25,12,02,12.30
2017,10,25,12,03,12.30
2017,10,25,12,04,12.30
2017,10,25,12,05,12.30
2017,10,25,12,06,12.30
2017,10,25,12,07,12.30
2017,10,25,12,08,12.30
2017,10,25,12,09,12.30
2017,10,25,12,10,12.30
2017,10,25,12,11,12.30
2017,10,25,12,12,12.30
2017,10,25,12,13,12.30
2017,10,25,12,14,12.30
2017,10,25,12,15,12.30
2017,10,25,12,16,12.30
2017,10,25,12,17,12.30
2017,10,25,12,18,12.30
2017,10,25,12,19,12.30
2017,10,25,12,20,12.30
2017,10,25,12,21,12.30
2017,10,25,12,22,12.30
2017,10,25,12,23,12.30
2017,10,25,12,24,12.30
2017,10,25,12,25,12.30
2017,10,25,12,26,12.40
2017,10,25,12,27,12.40
2017,10,25,12,28,12.40
2017,10,25,12,29,12.40
2017,10,25,12,30,12.40
2017,10,25,12,31,12.40
2017,10,25,12,32,12.40
2017,10,25,12,33,12.50
2017,10,25,12,34,12.50
2017,10,25,12,35,12.50
2017,10,25,12,36,12.50
2017,10,25,12,37,12.60
2017,10,25,12,38,12.60
2017,10,25,12,39,12.60
2017,10,25,12,40,12.60
2017,10,25,12,41,12.60
2017,10,25,12,42,12.60
2017,10,25,12,43,12.60
2017,10,25,12,44,12.60
2017,10,25,12,45,12.60
2017,10,25,12,46,12.60
2017,10,25,12,47,12.60
2017,10,25,12,48,12.60
2017,10,25,12,49,12.60
2017,10,25,12,50,12.60
2017,10,25,12,51,12.60
2017,10,25,12,52,12.60
2017,10,25,12,53,12.60
2017,10,25,12,54,12.60
2017,10,25,12,55,12.60
2017,10,25,12,56,12.60
2017,10,25,12,57,12.60
2017,10,25,12,58,12.60
2017,10,25,12,59,12.70
2017,10,25,13,00,12.70
2017,10,25,13,01,12.70
2017,10,25,13,02,12.70
2017,10,25,13,03,12.70
2017,10,25,13,04,12.70
2017,10,25,13,05,12.70
2017,10,25,13,06,12.80
2017,10,25,13,07,12.80
2017,10,25,13,08,12.80
2017,10,25,13,09,12.80
2017,10,25,13,10,12.80
2017,10,25,13,11,12.80
2017,10,25,13,12,12.80
2017,10,25,13,13,12.80
2017,10,25,13,14,12.80
2017,10,25,13,15,12.80
2017,10,25,13,16,12.90
2017,10,25,13,17,12.90
2017,10,25,13,18,12.90
2017,10,25,13,19,12.90
2017,10,25,13,20,12.90
2017,10,25,13,21,12.90
2017,10,25,13,22,13.00
2017,10,25,13,23,13.00
2017,10,25,13,24,13.00
2017,10,25,13,25,13.00
2017,10,25,13,26,13.00
2017,10,25,13,27,13.00
2017,10,25,13,28,13.10
2017,10,25,13,29,13.10
2017,10,25,13,30,13.10
2017,10,25,13,31,13.10
2017,10,25,13,32,13.10
2017,10,25,13,33,13.10
2017,10,25,13,34,13.20
2017,10,25,13,35,13.20
2017,10,25,13,36,13.20
2017,10,25,13,37,13.20
2017,10,25,13,38,13.20
2017,10,25,13,39,13.20
2017,10,25,13,40,13.20
2017,10,25,13,41,13.30
2017,10,25,13,42,13.30
2017,10,25,13,43,13.30
2017,10,25,13,44,13.30
2017,10,25,13,45,13.30
2017,10,25,13,46,13.30
2017,10,25,13,47,13.30
2017,10,25,13,48,13.30
2017,10,25,13,49,13.30
2017,10,25,13,50,13.30
2017,10,25,13,51,13.30
2017,10,25,13,52,13.30
2017,10,25,13,53,13.30
2017,10,25,13,54,13.30
2017,10,25,13,55,13.30
2017,10,25,13,56,13.30
2017,10,25,13,57,13.30
2017,10,25,13,58,13.40
2017,10,25,13,59,13.40
2017,10,25,14,00,13.40
2017,10,25,14,01,13.40
2017,10,25,14,02,13.40
2017,10,25,14,03,13.40
2017,10,25,14,04,13.50
2017,10,25,14,05,13.50
2017,10,25,14,06,13.60
2017,10,25,14,07,13.60
2017,10,25,14,08,13.60
2017,10,25,14,09,13.70
2017,10,25,14,10,13.70
2017,10,25,14,11,13.60
2017,10,25,14,12,13.60
2017,10,25,14,13,13.60
2017,10,25,14,14,13.60
2017,10,25,14,15,13.50
2017,10,25,14,16,13.50
2017,10,25,14,17,13.50
2017,10,25,14,18,13.40
2017,10,25,14,19,13.40
2017,10,25,14,20,13.40
2017,10,25,14,21,13.50
2017,10,25,14,22,13.50
2017,10,25,14,23,13.50
2017,10,25,14,24,13.60
2017,10,25,14,25,13.60
2017,10,25,14,26,13.70
2017,10,25,14,27,13.80
2017,10,25,14,28,13.80
2017,10,25,14,29,13.90
2017,10,25,14,30,13.90
2017,10,25,14,31,14.00
2017,10,25,14,32,14.00
2017,10,25,14,33,14.00
2017,10,25,14,34,14.00
2017,10,25,14,35,14.00
2017,10,25,14,36,14.00
2017,10,25,14,37,14.00
2017,10,25,14,38,14.00
2017,10,25,14,39,14.00
2017,10,25,14,40,14.00
2017,10,25,14,41,14.10
2017,10,25,14,42,14.10
2017,10,25,14,43,14.20
2017,10,25,14,44,14.20
2017,10,25,14,45,14.20
2017,10,25,14,46,14.20
2017,10,25,14,47,14.20
2017,10,25,14,48,14.10
2017,10,25,14,49,14.10
2017,10,25,14,50,14.10
2017,10,25,14,51,14.20
2017,10,25,14,52,14.20
2017,10,25,14,53,14.20
2017,10,25,14,54,14.20
2017,10,25,14,55,14.20
2017,10,25,14,56,14.20
2017,10,25,14,57,14.20
2017,10,25,14,58,14.30
2017,10,25,14,59,14.30
2017,10,25,15,00,14.30
2017,10,25,15,01,14.30
2017,10,25,15,02,14.30
2017,10,25,15,03,14.30
2017,10,25,15,04,14.30
2017,10,25,15,05,14.30
2017,10,25,15,06,14.30
2017,10,25,15,07,14.30
2017,10,25,15,08,14.30
2017,10,25,15,09,14.30
2017,10,25,15,10,14.20
2017,10,25,15,11,14.20
2017,10,25,15,12,14.20
2017,10,25,15,13,14.10
2017,10,25,15,14,14.10
2017,10,25,15,15,14.00
2017,10,25,15,16,14.00
2017,10,25,15,17,13.90
2017,10,25,15,18,13.90
2017,10,25,15,19,13.90
2017,10,25,15,20,13.90
2017,10,25,15,21,13.80
2017,10,25,15,22,13.80
2017,10,25,15,23,13.80
2017,10,25,15,24,13.80
2017,10,25,15,25,13.80
2017,10,25,15,26,13.80
2017,10,25,15,27,13.70
2017,10,25,15,28,13.70
2017,10,25,15,29,13.70
2017,10,25,15,30,13.60
2017,10,25,15,31,13.60
2017,10,25,15,32,13.50
2017,10,25,15,33,13.40
2017,10,25,15,34,13.40
2017,10,25,15,35,13.30
2017,10,25,15,36,13.30
2017,10,25,15,37,13.30
2017,10,25,15,38,13.30
2017,10,25,15,39,13.30
2017,10,25,15,40,13.30
2017,10,25,15,41,13.40
2017,10,25,15,42,13.40
2017,10,25,15,43,13.40
2017,10,25,15,44,13.50
2017,10,25,15,45,13.50
2017,10,25,15,46,13.60
2017,10,25,15,47,13.60
2017,10,25,15,48,13.70
2017,10,25,15,49,13.80
2017,10,25,15,50,13.80
2017,10,25,15,51,13.90
2017,10,25,15,52,13.90
2017,10,25,15,53,13.90
2017,10,25,15,54,14.00
2017,10,25,15,55,14.10
2017,10,25,15,56,14.10
2017,10,25,15,57,14.20
2017,10,25,15,58,14.20
2017,10,25,15,59,14.20
2017,10,25,16,00,14.30
2017,10,25,16,01,14.30
2017,10,25,16,02,14.40
2017,10,25,16,03,14.50
2017,10,25,16,04,14.50
2017,10,25,16,05,14.60
2017,10,25,16,06,14.60
2017,10,25,16,07,14.70
2017,10,25,16,08,14.70
2017,10,25,16,09,14.70
2017,10,25,16,10,14.80
2017,10,25,16,11,14.80
2017,10,25,16,12,14.80
2017,10,25,16,13,14.80
2017,10,25,16,14,14.80
2017,10,25,16,15,14.80
2017,10,25,16,16,14.70
2017,10,25,16,17,14.70
2017,10,25,16,18,14.70
2017,10,25,16,19,14.80
2017,10,25,16,20,14.80
2017,10,25,16,21,14.80
2017,10,25,16,22,14.80
2017,10,25,16,23,14.80
2017,10,25,16,24,14.80
2017,10,25,16,25,14.90
2017,10,25,16,26,15.00
2017,10,25,16,27,15.00
2017,10,25,16,28,15.10
2017,10,25,16,29,15.10
2017,10,25,16,30,15.10
2017,10,25,16,31,15.20
2017,10,25,16,32,15.20
2017,10,25,16,33,15.20
2017,10,25,16,34,15.20
2017,10,25,16,35,15.20
2017,10,25,16,36,15.20
2017,10,25,16,37,15.20
2017,10,25,16,38,15.20
2017,10,25,16,39,15.20
2017,10,25,16,40,15.20
2017,10,25,16,41,15.20
2017,10,25,16,42,15.20
2017,10,25,16,43,15.20
2017,10,25,16,44,15.20
2017,10,25,16,45,15.20
2017,10,25,16,46,15.20
2017,10,25,16,47,15.20
2017,10,25,16,48,15.20
2017,10,25,16,49,15.20
2017,10,25,16,50,15.20
2017,10,25,16,51,15.20
2017,10,25,16,52,15.20
2017,10,25,16,53,15.10
2017,10,25,16,54,15.10
2017,10,25,16,55,15.00
2017,10,25,16,56,15.00
2017,10,25,16,57,14.90
2017,10,25,16,58,14.80
2017,10,25,16,59,14.80
2017,10,25,17,00,14.70
2017,10,25,17,01,14.60
2017,10,25,17,02,14.60
2017,10,25,17,03,14.50
2017,10,25,17,04,14.40
2017,10,25,17,05,14.40
2017,10,25,17,06,14.30
2017,10,25,17,07,14.30
2017,10,25,17,08,14.20
2017,10,25,17,09,14.20
2017,10,25,17,10,14.10
2017,10,25,17,11,14.10
2017,10,25,17,12,14.10
2017,10,25,17,13,14.00
2017,10,25,17,14,13.90
2017,10,25,17,15,13.90
2017,10,25,17,16,13.80
2017,10,25,17,17,13.80
2017,10,25,17,18,13.80
2017,10,25,17,19,13.80
2017,10,25,17,20,13.70
2017,10,25,17,21,13.70
2017,10,25,17,22,13.70
2017,10,25,17,23,13.70
2017,10,25,17,24,13.70
2017,10,25,17,25,13.70
2017,10,25,17,26,13.60
2017,10,25,17,27,13.60
2017,10,25,17,28,13.60
2017,10,25,17,29,13.50
2017,10,25,17,30,13.50
2017,10,25,17,31,13.40
2017,10,25,17,32,13.40